When you browse on this site, cookies collect data to enhance your experience and personalize the content and advertising you see.
Visit our Privacy Policy to learn more. By continuing to use the site, you agree to this use of cookies and data.
  • In Deutschland
  • Länderverzeichnis
  • Für 7 Tage
  • Wassertemperatur
  • Wetterkarte
  • Widgets
  • user-avatar
    Anmelden

    Stündliche Wetter Krawcowizna

    Heute, 25 Mai, Montag

    Zeit Temperatur Niederschläge Wind Luftdruck Luftfeuchtigkeit
    00:00 +9°C° 0 mm 2 m/S 755 mmHg 89%
    01:00 +9°C° 0 mm 2 m/S 755 mmHg 90%
    02:00 +9°C° 0.1 mm 2 m/S 755 mmHg 91%
    03:00 +9°C° 0.1 mm 2 m/S 755 mmHg 91%
    04:00 +10°C° 0.1 mm 1 m/S 755 mmHg 92%
    05:00 +9°C° 0.1 mm 2 m/S 755 mmHg 90%
    06:00 +10°C° 0.1 mm 2 m/S 755 mmHg 88%
    07:00 +10°C° 0 mm 2 m/S 756 mmHg 88%
    08:00 +12°C° 0.3 mm 2 m/S 756 mmHg 84%
    09:00 +13°C° 0.3 mm 2 m/S 756 mmHg 80%
    10:00 +14°C° 0.3 mm 2 m/S 756 mmHg 77%
    11:00 +15°C° 0.4 mm 2 m/S 756 mmHg 71%
    12:00 +16°C° 0.4 mm 2 m/S 756 mmHg 66%
    13:00 +16°C° 0 mm 3 m/S 756 mmHg 63%
    14:00 +16°C° 0.5 mm 3 m/S 756 mmHg 64%
    15:00 +16°C° 0.5 mm 3 m/S 756 mmHg 65%
    16:00 +16°C° 0.5 mm 3 m/S 756 mmHg 67%
    17:00 +14°C° 0.5 mm 3 m/S 756 mmHg 72%
    18:00 +14°C° 0.5 mm 2 m/S 757 mmHg 78%
    19:00 +13°C° 0.5 mm 2 m/S 757 mmHg 83%
    20:00 +12°C° 0 mm 2 m/S 757 mmHg 86%
    21:00 +10°C° 0 mm 2 m/S 758 mmHg 88%
    22:00 +10°C° 0 mm 2 m/S 758 mmHg 90%
    23:00 +9°C° 0 mm 2 m/S 758 mmHg 92%

    Morgen, 26 Mai, Dienstag

    Zeit Temperatur Niederschläge Wind Luftdruck Luftfeuchtigkeit
    00:00 +9°C° 0 mm 2 m/S 758 mmHg 93%
    01:00 +8°C° 0 mm 2 m/S 758 mmHg 95%
    02:00 +8°C° 0 mm 2 m/S 759 mmHg 95%
    03:00 +8°C° 0 mm 2 m/S 759 mmHg 96%
    04:00 +7°C° 0 mm 3 m/S 759 mmHg 96%
    05:00 +9°C° 0 mm 3 m/S 759 mmHg 93%
    06:00 +10°C° 0 mm 3 m/S 760 mmHg 90%
    07:00 +12°C° 0 mm 3 m/S 760 mmHg 86%
    08:00 +13°C° 0.3 mm 4 m/S 760 mmHg 80%
    09:00 +15°C° 0.3 mm 4 m/S 760 mmHg 74%
    10:00 +16°C° 0.3 mm 5 m/S 760 mmHg 68%
    11:00 +17°C° 0.2 mm 5 m/S 760 mmHg 65%
    12:00 +17°C° 0.2 mm 5 m/S 760 mmHg 62%
    13:00 +19°C° 0.2 mm 5 m/S 760 mmHg 59%
    14:00 +19°C° 0.3 mm 5 m/S 760 mmHg 61%
    15:00 +19°C° 0.3 mm 5 m/S 760 mmHg 63%
    16:00 +17°C° 0.3 mm 5 m/S 759 mmHg 65%
    17:00 +16°C° 0.3 mm 5 m/S 760 mmHg 72%
    18:00 +15°C° 0.3 mm 4 m/S 760 mmHg 78%
    19:00 +14°C° 0.3 mm 3 m/S 760 mmHg 84%
    20:00 +13°C° 0 mm 3 m/S 760 mmHg 87%
    21:00 +12°C° 0 mm 3 m/S 760 mmHg 90%
    22:00 +11°C° 0 mm 3 m/S 761 mmHg 93%
    23:00 +11°C° 0 mm 3 m/S 761 mmHg 93%

    übermorgen, 27 Mai, Mittwoch

    Zeit Temperatur Niederschläge Wind Luftdruck Luftfeuchtigkeit
    00:00 +10°C° 0 mm 3 m/S 760 mmHg 94%
    01:00 +10°C° 0 mm 3 m/S 760 mmHg 95%
    02:00 +9°C° 0 mm 3 m/S 760 mmHg 96%
    03:00 +9°C° 0 mm 3 m/S 760 mmHg 96%
    04:00 +9°C° 0 mm 3 m/S 760 mmHg 96%
    05:00 +10°C° 0 mm 3 m/S 760 mmHg 92%
    06:00 +12°C° 0 mm 3 m/S 760 mmHg 87%
    07:00 +14°C° 0 mm 3 m/S 761 mmHg 83%
    08:00 +16°C° 0.3 mm 3 m/S 760 mmHg 77%
    09:00 +17°C° 0.3 mm 4 m/S 760 mmHg 72%
    10:00 +19°C° 0.3 mm 4 m/S 760 mmHg 66%
    11:00 +19°C° 0.3 mm 4 m/S 759 mmHg 64%
    12:00 +19°C° 0.3 mm 4 m/S 759 mmHg 62%
    13:00 +20°C° 0.3 mm 4 m/S 759 mmHg 59%
    14:00 +20°C° 0.3 mm 4 m/S 758 mmHg 60%
    15:00 +19°C° 0.3 mm 4 m/S 758 mmHg 61%
    16:00 +19°C° 0.3 mm 4 m/S 758 mmHg 61%
    17:00 +18°C° 0.1 mm 3 m/S 758 mmHg 67%
    18:00 +16°C° 0.1 mm 3 m/S 758 mmHg 73%
    19:00 +14°C° 0.1 mm 3 m/S 758 mmHg 79%
    20:00 +14°C° 0 mm 2 m/S 758 mmHg 81%
    21:00 +13°C° 0 mm 2 m/S 758 mmHg 84%
    22:00 +12°C° 0 mm 2 m/S 758 mmHg 87%
    23:00 +10°C° 0 mm 2 m/S 758 mmHg 87%

    28 Mai, Donnerstag

    Zeit Temperatur Niederschläge Wind Luftdruck Luftfeuchtigkeit
    00:00 +11°C° 0 mm 1 m/S 758 mmHg 88%
    01:00 +11°C° 0 mm 1 m/S 757 mmHg 89%
    02:00 +11°C° 0 mm 1 m/S 757 mmHg 89%
    03:00 +11°C° 0 mm 1 m/S 757 mmHg 89%
    04:00 +11°C° 0 mm 1 m/S 757 mmHg 88%
    05:00 +11°C° 0 mm 1 m/S 757 mmHg 86%
    06:00 +12°C° 0 mm 2 m/S 756 mmHg 84%
    07:00 +13°C° 0 mm 2 m/S 756 mmHg 82%
    08:00 +13°C° 0.2 mm 3 m/S 756 mmHg 77%
    09:00 +14°C° 0.2 mm 4 m/S 756 mmHg 72%
    10:00 +16°C° 0.2 mm 5 m/S 756 mmHg 67%
    11:00 +16°C° 0.1 mm 5 m/S 755 mmHg 62%
    12:00 +17°C° 0.1 mm 5 m/S 755 mmHg 58%
    13:00 +19°C° 0.1 mm 5 m/S 755 mmHg 54%
    14:00 +17°C° 0.3 mm 5 m/S 754 mmHg 58%
    15:00 +17°C° 0.3 mm 6 m/S 754 mmHg 63%
    16:00 +16°C° 0.3 mm 7 m/S 754 mmHg 68%
    17:00 +15°C° 0.1 mm 6 m/S 754 mmHg 72%
    18:00 +14°C° 0.1 mm 6 m/S 754 mmHg 76%
    19:00 +12°C° 0.1 mm 5 m/S 755 mmHg 80%
    20:00 +10°C° 0 mm 5 m/S 755 mmHg 79%
    21:00 +9°C° 0 mm 5 m/S 755 mmHg 79%
    22:00 +8°C° 0 mm 5 m/S 755 mmHg 79%
    23:00 +7°C° 0 mm 5 m/S 755 mmHg 79%

    29 Mai, Freitag

    Zeit Temperatur Niederschläge Wind Luftdruck Luftfeuchtigkeit
    00:00 +6°C° 0 mm 5 m/S 755 mmHg 79%
    01:00 +5°C° 0 mm 4 m/S 755 mmHg 79%
    02:00 +5°C° 0 mm 4 m/S 756 mmHg 80%
    03:00 +4°C° 0 mm 4 m/S 756 mmHg 81%
    04:00 +4°C° 0 mm 4 m/S 756 mmHg 82%
    05:00 +5°C° 0 mm 5 m/S 756 mmHg 77%
    06:00 +7°C° 0 mm 5 m/S 756 mmHg 72%
    07:00 +8°C° 0 mm 5 m/S 756 mmHg 67%
    08:00 +9°C° 0 mm 5 m/S 756 mmHg 65%
    09:00 +12°C° 0 mm 5 m/S 755 mmHg 62%
    10:00 +13°C° 0 mm 5 m/S 755 mmHg 59%
    11:00 +13°C° 0.6 mm 6 m/S 755 mmHg 62%
    12:00 +13°C° 0.6 mm 6 m/S 754 mmHg 66%
    13:00 +12°C° 0.6 mm 7 m/S 754 mmHg 70%
    14:00 +12°C° 0.4 mm 7 m/S 754 mmHg 70%
    15:00 +13°C° 0.4 mm 6 m/S 754 mmHg 71%
    16:00 +13°C° 0.4 mm 6 m/S 753 mmHg 71%
    17:00 +11°C° 0.5 mm 6 m/S 753 mmHg 77%
    18:00 +10°C° 0.5 mm 6 m/S 753 mmHg 82%
    19:00 +9°C° 0.5 mm 6 m/S 753 mmHg 88%
    20:00 +8°C° 0 mm 5 m/S 753 mmHg 89%
    21:00 +7°C° 0 mm 4 m/S 753 mmHg 91%
    22:00 +7°C° 0 mm 3 m/S 753 mmHg 92%
    23:00 +7°C° 0 mm 3 m/S 753 mmHg 93%

    30 Mai, Samstag

    Zeit Temperatur Niederschläge Wind Luftdruck Luftfeuchtigkeit
    00:00 +5°C° 0 mm 3 m/S 753 mmHg 93%
    01:00 +5°C° 0 mm 3 m/S 753 mmHg 94%
    02:00 +5°C° 0 mm 3 m/S 753 mmHg 94%
    03:00 +5°C° 0 mm 3 m/S 753 mmHg 94%
    04:00 +5°C° 0 mm 3 m/S 753 mmHg 94%
    05:00 +7°C° 0 mm 2 m/S 753 mmHg 93%
    06:00 +8°C° 0 mm 2 m/S 753 mmHg 91%
    07:00 +10°C° 0 mm 2 m/S 753 mmHg 89%
    08:00 +12°C° 0 mm 2 m/S 753 mmHg 85%
    09:00 +13°C° 0 mm 2 m/S 753 mmHg 82%
    10:00 +13°C° 0 mm 2 m/S 753 mmHg 79%
    11:00 +14°C° 0 mm 2 m/S 753 mmHg 78%
    12:00 +15°C° 0 mm 2 m/S 753 mmHg 77%
    13:00 +15°C° 0 mm 2 m/S 753 mmHg 76%
    14:00 +15°C° 0 mm 2 m/S 752 mmHg 76%
    15:00 +16°C° 0 mm 2 m/S 752 mmHg 77%
    16:00 +16°C° 0 mm 2 m/S 752 mmHg 78%
    17:00 +16°C° 0.2 mm 2 m/S 752 mmHg 82%
    18:00 +15°C° 0.2 mm 2 m/S 752 mmHg 85%
    19:00 +15°C° 0.2 mm 2 m/S 751 mmHg 88%
    20:00 +14°C° 1.2 mm 2 m/S 751 mmHg 91%
    21:00 +14°C° 1.2 mm 2 m/S 751 mmHg 93%
    22:00 +14°C° 1.2 mm 2 m/S 751 mmHg 96%
    23:00 +13°C° 0.4 mm 2 m/S 751 mmHg 96%
    Mehr zeigen